User: anonymous   Login
Location: Newark
(52.9300°N, 3.3400°W)
Time: 08:50:03
(UTC+00:00)
Language:

DIWATA 2B (PO-101) - Orbit

View from above orbital plane
View from above orbital plane
View from above satellite
View from above satellite

Ground track
Ground track

The orbit data is extracted from the following two-line orbital elements,

1 43678U 18084H   21128.94537030 -.00000206  00000-0 -14663-4 0  9998
2 43678  97.9172 254.0350 0009785 173.4149 186.7184 14.91739076137544
Epoch (UTC): 08 May 2021 22:41:19
Eccentricity: 0.0009785
inclination: 97.9172°
perigee height: 585 km
apogee height: 599 km
right ascension of ascending node: 254.0350°
argument of perigee: 173.4149°
revolutions per day: 14.91739076
mean anomaly at epoch: 186.7184°
orbit number at epoch: 13754

The dashed part of the orbit path shows where the satellite is in the earth's shadow,  

DLR